Location: Mohawk View
(42.7837°N, 73.7885°W)
Time: 08:41:57
(UTC+00:00)

Cosmos 220 Rocket - Pass Details

Date: 17 June 2021
Orbit: 575 x 616 km, 74.0° (Epoch: 27 July)

Event Time Altitude Azimuth Distance (km) Brightness Sun altitude
Rises 01:23:22 0° 200° (SSW) 2,828 7.2 -7.7°
Reaches altitude 10° 01:25:35 10° 202° (SSW) 1,923 6.4 -8.0°
Maximum altitude 01:29:53 82° 288° (WNW) 600 4.1 -8.6°
Drops below altitude 10° 01:34:10 10° 18° (NNE) 1,914 6.9 -9.2°
Sets 01:36:22 0° 20° (NNE) 2,812 7.8 -9.4°
